• In Uzbekistan
  • List of Countries
  • For 7 days
  • Water Temperature
  • Satellite Maps
  • Weather Map
  • Weather Widgets
  • user-avatar
    Login

    Hourly Weather Khashuri

    Today, 14 December, Friday

    Time Temperature Precipitation Wind Pressure Humidity
    00:00 -7°C° 0 mm 1 mps 613 mmHg 87%
    01:00 -7°C° 0 mm 1 mps 613 mmHg 86%
    02:00 -8°C° 0 mm 1 mps 613 mmHg 85%
    03:00 -8°C° 0 mm 1 mps 613 mmHg 84%
    04:00 -10°C° 0 mm 2 mps 613 mmHg 82%
    05:00 -10°C° 0 mm 2 mps 613 mmHg 80%
    06:00 -10°C° 0 mm 2 mps 613 mmHg 78%
    07:00 -9°C° 0 mm 2 mps 614 mmHg 77%
    08:00 -8°C° 0 mm 1 mps 614 mmHg 75%
    09:00 -7°C° 0 mm 1 mps 614 mmHg 73%
    10:00 -6°C° 0 mm 1 mps 615 mmHg 71%
    11:00 -4°C° 0 mm 1 mps 615 mmHg 69%
    12:00 -3°C° 0 mm 1 mps 615 mmHg 67%
    13:00 -3°C° 0.1 mm 1 mps 615 mmHg 70%
    14:00 -3°C° 0.1 mm 1 mps 615 mmHg 73%
    15:00 -3°C° 0.1 mm 1 mps 615 mmHg 76%
    16:00 -4°C° 0.1 mm 1 mps 615 mmHg 79%
    17:00 -4°C° 0.1 mm 1 mps 615 mmHg 81%
    18:00 -6°C° 0.1 mm 1 mps 615 mmHg 84%
    19:00 -6°C° 0 mm 1 mps 615 mmHg 84%
    20:00 -7°C° 0 mm 1 mps 615 mmHg 83%
    21:00 -7°C° 0 mm 1 mps 615 mmHg 83%
    22:00 -7°C° 0 mm 1 mps 615 mmHg 82%
    23:00 -9°C° 0 mm 2 mps 615 mmHg 81%

    Tomorrow, 15 December, Saturday

    Time Temperature Precipitation Wind Pressure Humidity
    00:00 -9°C° 0 mm 2 mps 615 mmHg 80%
    01:00 -9°C° 0 mm 2 mps 615 mmHg 80%
    02:00 -9°C° 0 mm 2 mps 615 mmHg 80%
    03:00 -9°C° 0 mm 2 mps 615 mmHg 80%
    04:00 -9°C° 0 mm 2 mps 615 mmHg 79%
    05:00 -9°C° 0 mm 2 mps 615 mmHg 79%
    06:00 -9°C° 0 mm 2 mps 615 mmHg 79%
    07:00 -8°C° 0 mm 2 mps 615 mmHg 78%
    08:00 -7°C° 0 mm 2 mps 616 mmHg 77%
    09:00 -6°C° 0 mm 2 mps 616 mmHg 75%
    10:00 -5°C° 0 mm 2 mps 616 mmHg 74%
    11:00 -3°C° 0 mm 2 mps 616 mmHg 72%
    12:00 -2°C° 0 mm 2 mps 616 mmHg 70%
    13:00 -2°C° 0 mm 2 mps 616 mmHg 71%
    14:00 0°C° 0 mm 1 mps 616 mmHg 73%
    15:00 0°C° 0 mm 1 mps 616 mmHg 75%
    16:00 -1°C° 0 mm 1 mps 616 mmHg 77%
    17:00 -2°C° 0 mm 1 mps 615 mmHg 79%
    18:00 -3°C° 0 mm 1 mps 615 mmHg 81%
    19:00 -5°C° 0 mm 2 mps 615 mmHg 81%
    20:00 -5°C° 0 mm 2 mps 615 mmHg 81%
    21:00 -5°C° 0 mm 2 mps 615 mmHg 81%
    22:00 -5°C° 0 mm 2 mps 615 mmHg 81%
    23:00 -5°C° 0 mm 2 mps 615 mmHg 80%

    Day after tomorrow, 16 December, Sunday

    Time Temperature Precipitation Wind Pressure Humidity
    00:00 -5°C° 0 mm 2 mps 615 mmHg 80%
    01:00 -5°C° 0 mm 2 mps 615 mmHg 80%
    02:00 -5°C° 0 mm 2 mps 614 mmHg 80%
    03:00 -5°C° 0 mm 2 mps 614 mmHg 81%
    04:00 -5°C° 0 mm 2 mps 614 mmHg 81%
    05:00 -5°C° 0 mm 2 mps 614 mmHg 81%
    06:00 -5°C° 0 mm 2 mps 614 mmHg 81%
    07:00 -5°C° 0 mm 2 mps 614 mmHg 80%
    08:00 -4°C° 0 mm 2 mps 614 mmHg 79%
    09:00 -4°C° 0 mm 2 mps 615 mmHg 78%
    10:00 -2°C° 0 mm 2 mps 615 mmHg 78%
    11:00 +1°C° 0 mm 1 mps 615 mmHg 77%
    12:00 +2°C° 0 mm 1 mps 615 mmHg 76%
    13:00 +2°C° 0 mm 1 mps 615 mmHg 77%
    14:00 +2°C° 0 mm 1 mps 615 mmHg 77%
    15:00 +2°C° 0 mm 1 mps 614 mmHg 78%
    16:00 +1°C° 0 mm 1 mps 614 mmHg 78%
    17:00 -2°C° 0 mm 2 mps 614 mmHg 78%
    18:00 -3°C° 0 mm 2 mps 614 mmHg 78%
    19:00 -3°C° 0 mm 2 mps 614 mmHg 78%
    20:00 -3°C° 0 mm 2 mps 614 mmHg 78%
    21:00 -3°C° 0 mm 2 mps 614 mmHg 78%
    22:00 -3°C° 0 mm 2 mps 614 mmHg 78%
    23:00 -3°C° 0 mm 2 mps 614 mmHg 78%

    17 December, Monday

    Time Temperature Precipitation Wind Pressure Humidity
    00:00 -4°C° 0 mm 2 mps 614 mmHg 79%
    01:00 -4°C° 0 mm 2 mps 614 mmHg 79%
    02:00 -4°C° 0 mm 2 mps 614 mmHg 79%
    03:00 -5°C° 0 mm 2 mps 614 mmHg 79%
    04:00 -5°C° 0 mm 2 mps 613 mmHg 79%
    05:00 -5°C° 0 mm 2 mps 613 mmHg 79%
    06:00 -5°C° 0 mm 2 mps 613 mmHg 78%
    07:00 -5°C° 0 mm 2 mps 613 mmHg 78%
    08:00 -4°C° 0 mm 2 mps 613 mmHg 77%
    09:00 -4°C° 0 mm 2 mps 613 mmHg 76%
    10:00 -3°C° 0 mm 2 mps 613 mmHg 76%
    11:00 -2°C° 0 mm 2 mps 613 mmHg 75%
    12:00 -1°C° 0 mm 2 mps 613 mmHg 75%
    13:00 -1°C° 0 mm 2 mps 613 mmHg 75%
    14:00 -1°C° 0 mm 2 mps 612 mmHg 76%
    15:00 -1°C° 0 mm 2 mps 612 mmHg 77%
    16:00 -2°C° 0 mm 2 mps 612 mmHg 78%
    17:00 -3°C° 0 mm 2 mps 612 mmHg 79%
    18:00 -4°C° 0 mm 2 mps 612 mmHg 80%
    19:00 -4°C° 0 mm 2 mps 612 mmHg 80%
    20:00 -4°C° 0 mm 2 mps 612 mmHg 79%
    21:00 -5°C° 0 mm 2 mps 612 mmHg 79%
    22:00 -5°C° 0 mm 2 mps 612 mmHg 80%
    23:00 -5°C° 0 mm 2 mps 612 mmHg 80%

    18 December, Tuesday

    Time Temperature Precipitation Wind Pressure Humidity
    00:00 -3°C° 0 mm 1 mps 612 mmHg 80%
    01:00 -4°C° 0 mm 1 mps 612 mmHg 80%
    02:00 -4°C° 0 mm 1 mps 611 mmHg 80%
    03:00 -4°C° 0 mm 1 mps 611 mmHg 81%
    04:00 -4°C° 0 mm 1 mps 611 mmHg 80%
    05:00 -4°C° 0 mm 1 mps 611 mmHg 80%
    06:00 -4°C° 0 mm 1 mps 611 mmHg 80%
    07:00 -4°C° 0 mm 1 mps 612 mmHg 79%
    08:00 -3°C° 0 mm 1 mps 612 mmHg 78%
    09:00 -2°C° 0 mm 1 mps 612 mmHg 77%
    10:00 -1°C° 0 mm 1 mps 613 mmHg 76%
    11:00 0°C° 0 mm 1 mps 613 mmHg 75%
    12:00 +1°C° 0 mm 1 mps 613 mmHg 74%
    13:00 +1°C° 0 mm 1 mps 613 mmHg 75%
    14:00 +1°C° 0 mm 1 mps 613 mmHg 77%
    15:00 0°C° 0 mm 1 mps 613 mmHg 78%
    16:00 0°C° 0 mm 1 mps 613 mmHg 81%
    17:00 -2°C° 0 mm 0 mps 613 mmHg 84%
    18:00 -3°C° 0 mm 0 mps 613 mmHg 87%
    19:00 -3°C° 0 mm 0 mps 613 mmHg 86%
    20:00 -2°C° 0 mm 1 mps 614 mmHg 85%
    21:00 -3°C° 0 mm 1 mps 614 mmHg 85%
    22:00 -3°C° 0 mm 1 mps 614 mmHg 84%
    23:00 -3°C° 0 mm 1 mps 614 mmHg 83%

    19 December, Wednesday

    Time Temperature Precipitation Wind Pressure Humidity
    00:00 -3°C° 0 mm 1 mps 614 mmHg 83%
    01:00 -4°C° 0 mm 1 mps 614 mmHg 82%
    02:00 -4°C° 0 mm 1 mps 614 mmHg 82%
    03:00 -4°C° 0 mm 1 mps 614 mmHg 81%
    04:00 -4°C° 0 mm 1 mps 614 mmHg 81%
    05:00 -4°C° 0 mm 1 mps 614 mmHg 80%
    06:00 -4°C° 0 mm 1 mps 614 mmHg 80%
    07:00 -4°C° 0 mm 1 mps 615 mmHg 79%
    08:00 -3°C° 0 mm 1 mps 615 mmHg 78%
    09:00 -3°C° 0 mm 1 mps 615 mmHg 76%
    10:00 -2°C° 0 mm 1 mps 616 mmHg 74%
    11:00 -1°C° 0 mm 1 mps 616 mmHg 73%
    12:00 +1°C° 0 mm 1 mps 616 mmHg 71%
    13:00 0°C° 0 mm 1 mps 616 mmHg 72%
    14:00 0°C° 0 mm 1 mps 616 mmHg 72%
    15:00 0°C° 0 mm 1 mps 616 mmHg 73%
    16:00 -1°C° 0 mm 1 mps 616 mmHg 76%
    17:00 -2°C° 0 mm 1 mps 616 mmHg 78%
    18:00 -3°C° 0 mm 1 mps 615 mmHg 80%
    19:00 -3°C° 0 mm 1 mps 616 mmHg 80%
    20:00 -4°C° 0 mm 1 mps 616 mmHg 79%
    21:00 -6°C° 0 mm 2 mps 616 mmHg 78%
    22:00 -6°C° 0 mm 2 mps 616 mmHg 78%
    23:00 -6°C° 0 mm 2 mps 616 mmHg 78%
    Show more